Home   Weather   Leknes   Past weeks
Flag for Norway

Past Weather in Leknes, Norway — Yesterday and Last 2 Weeks

Now
34 °F

Scattered showers. Scattered clouds.


Feels Like: 28 °F
Forecast: 30 / 28 °F
Wind: 7 mph from Northeast

Location: Leknes

Current Time: Apr 1, 2020 at 2:15:00 pm

Latest Report: Apr 1, 2020 at 1:20 pm


Visibility: N/A

Pressure: 29.45 "Hg

Humidity: 81%

Dew Point: 28 °F

Location of LeknesLocation

Past Weather in Leknes — Graph

°F

Leknes Temperature Yesterday

Maximum temperature yesterday: 39 °F (at 4:50 am)
Minimum temperature yesterday: 34 °F (at 12:20 pm)
Average temperature yesterday: 37 °F

High & Low Weather Summary for the Past Weeks

 TemperatureHumidityPressure
High45 °F (Mar 24, 12:50 pm)100% (Mar 19, 11:50 pm)30.45 "Hg (Mar 19, 11:50 pm)
Low25 °F (Mar 20, 12:20 am)47% (Mar 29, 2:20 pm)29.12 "Hg (Mar 17, 11:20 am)
Average36 °F75%29.74 "Hg
* Reported Mar 17 11:20 am — Apr 1 12:50 pm, Leknes. Weather by CustomWeather, © 2020

Note: Actual official high and low records may vary slightly from our data, if they occured in-between our weather recording intervals... More about our weather records

Leknes Weather History for the Previous 24 Hours

Scroll right to see more
 ConditionsComfort  
Time TempWeatherWind HumidityBarometerVisibility
12:50 pm
Wed, Apr 1
32 °FHeavy snow. Scattered clouds.7 mph87%29.47 "HgN/A
11:50 am34 °FScattered clouds.2 mph75%29.47 "HgN/A
11:20 am37 °FSnow flurries. Scattered clouds.6 mph65%29.47 "HgN/A
10:50 am37 °FScattered clouds.6 mph65%29.50 "HgN/A
10:20 am39 °FScattered clouds.3 mph65%29.50 "HgN/A
9:50 am36 °FScattered clouds.2 mph75%29.50 "HgN/A
9:20 am34 °FPassing clouds.2 mph81%29.50 "HgN/A
8:50 am32 °FPassing clouds.5 mph87%29.50 "HgN/A
7:50 am30 °FLight mixture of precip. Scattered clouds.2 mph93%29.53 "HgN/A
6:50 am30 °FLight mixture of precip. Scattered clouds.6 mph93%29.53 "HgN/A
6:20 am30 °FLight mixture of precip. Scattered clouds.2 mph93%29.53 "HgN/A
5:20 am30 °FLight mixture of precip. Passing clouds.5 mph93%29.56 "HgN/A
4:50 am30 °FSnow. Ice fog.9 mph100%29.56 "Hg1 mi
10:20 pm
Tue, Mar 31
34 °FSnow flurries. Passing clouds.21 mph75%29.45 "HgN/A
9:50 pm36 °FSnow flurries. Passing clouds.24 mph60%29.45 "HgN/A
9:20 pm36 °FScattered showers. Partly cloudy.23 mph60%29.42 "HgN/A
8:50 pm36 °FScattered showers. Partly cloudy.26 mph65%29.39 "HgN/A
8:20 pm36 °FScattered showers. Partly cloudy.23 mph70%29.36 "HgN/A
7:50 pm37 °FScattered showers. Broken clouds.29 mph65%29.33 "HgN/A
7:20 pm37 °FScattered showers. Broken clouds.26 mph87%29.30 "Hg5 mi
6:50 pm37 °FSprinkles. Broken clouds.21 mph87%29.27 "Hg3 mi
6:20 pm37 °FScattered showers. Broken clouds.20 mph87%29.24 "HgN/A
5:50 pm36 °FSprinkles. Broken clouds.20 mph87%29.21 "Hg4 mi
5:20 pm36 °FSprinkles. Scattered clouds.22 mph93%29.21 "HgN/A
4:50 pm39 °FScattered showers. Scattered clouds.22 mph75%29.21 "HgN/A
4:20 pm39 °FScattered showers. Scattered clouds.12 mph70%29.21 "HgN/A
3:20 pm37 °FMixture of precip. Broken clouds.28 mph81%29.21 "Hg4 mi
2:50 pm37 °FRain showers. Light fog.24 mph81%29.21 "Hg4 mi
2:20 pm37 °FRain showers. Broken clouds.25 mph75%29.24 "Hg5 mi
Weather by CustomWeather, © 2020

See weather overview

Advertising